Location: Unspecified
(0.0000°N, 0.0000°E)
Time: 16:13:36
(UTC+00:00)

CZ-3C DEB - Pass Details

Date: 12 March 2026
Orbit: 640 x 36740 km, 20.7° (Epoch: 1 May)

Event Time Altitude Azimuth Distance (km) Brightness Sun altitude
Exits shadow 02:03:33 12° 63° (ENE) 3,685 ? -61.4°
Drops below altitude 10° 02:04:24 10° 64° (ENE) 4,093 ? -61.2°
Sets 02:10:49 0° 66° (ENE) 7,060 ? -59.6°
